Wind_Speed
13 13 14 13 13 13 13 12 12 12 11 11 9 7 8 7 4 4 4 4 7 10 12 13 10 7 7 8 8 6 5 6 7 3 4 10 12 10 12 14 15 17 17 16 16 16 16 16 16 16 15 15 15 14 14 14 13 13 13 13 14 14 14 14 14 14 13 14 14 13 13 13 14 14
14 15 16 16 16 15 14 14 13 12 10 8 9 11 13 13 6 8 7 4 7 10 12 12 10 8 8 9 7 5 5 6 6 3 3 9 11 8 9 13 14 15 16 16 17 16 16 17 16 17 17 17 17 16 16 15 15 15 14 14 14 14 14 14 15 15 15 15 16 16 16 16 16 15
15 17 17 17 16 14 14 13 13 12 10 9 11 12 14 17 13 16 14 6 6 10 11 9 8 8 7 5 3 4 7 7 5 3 1 7 10 7 7 10 12 12 13 14 16 16 17 16 16 16 17 17 17 18 18 17 17 17 16 16 16 15 16 15 15 15 15 16 16 16 17 17 18 18
16 16 16 15 14 13 14 13 13 14 14 13 13 11 12 15 15 19 18 10 7 9 9 7 6 6 4 2 3 6 5 8 8 3 2 6 9 5 4 9 11 10 11 12 14 16 17 17 16 15 14 15 16 16 17 18 18 18 18 18 18 17 17 18 17 17 17 17 17 17 17 18 18 19
15 15 14 13 13 14 13 12 12 12 11 10 11 11 11 12 12 15 18 15 10 8 8 7 5 4 3 2 4 4 4 8 8 5 5 8 10 5 4 11 12 9 11 12 14 17 18 19 19 16 14 15 16 15 15 16 16 17 18 19 20 20 19 19 19 19 19 18 18 18 18 18 18 18
14 14 13 12 12 11 8 9 11 8 6 9 13 13 12 11 10 9 13 16 13 9 7 6 5 4 5 2 2 2 5 5 7 5 3 6 7 5 7 11 11 11 13 14 15 17 18 20 21 18 17 19 19 18 17 16 14 14 15 17 19 20 21 21 20 20 20 19 19 19 19 18 18 18
12 12 11 11 10 9 7 8 9 8 9 13 14 12 10 8 7 8 9 13 15 13 9 7 8 6 5 4 2 2 3 4 7 4 1 2 4 6 8 10 13 15 16 17 18 18 17 20 21 19 19 22 21 21 20 18 15 13 15 17 18 18 19 19 20 21 22 22 21 21 20 20 19 19
10 10 10 9 8 7 7 7 7 7 9 11 11 9 7 5 3 4 8 8 9 11 11 8 7 5 1 3 3 2 2 4 9 7 4 5 7 9 11 13 16 17 17 19 20 18 17 20 20 18 20 22 21 21 21 19 17 15 17 20 18 15 14 16 19 22 23 23 23 23 23 22 21 20
9 9 9 8 7 7 6 6 5 3 3 6 6 7 9 8 5 4 5 5 2 2 6 8 6 2 2 2 2 2 3 2 7 6 4 7 8 11 12 13 15 16 18 21 20 19 18 19 19 19 21 23 23 22 20 19 18 18 20 21 18 14 13 17 21 23 24 24 24 24 24 24 23 22
9 8 8 8 7 6 5 4 4 3 2 4 4 5 7 8 6 5 5 3 2 2 3 3 5 4 1 2 4 4 4 3 6 6 7 9 10 12 13 14 15 16 17 18 19 19 17 17 19 20 22 24 25 23 20 19 18 17 19 20 18 16 16 19 22 25 27 26 25 24 24 24 24 24
8 8 8 8 7 6 5 4 5 5 2 2 1 4 5 5 5 5 3 1 2 2 2 2 3 7 6 4 3 2 4 5 6 9 11 11 11 12 13 16 18 17 16 15 17 17 15 16 18 19 22 25 26 23 20 19 18 17 18 18 18 18 20 22 24 27 29 29 26 25 24 23 23 23
9 8 7 8 8 7 6 6 6 6 3 2 1 0 1 2 4 4 1 2 1 0 4 5 3 4 6 6 4 2 6 7 8 9 9 9 9 11 15 18 19 17 15 15 15 15 15 17 20 23 26 25 22 20 18 19 19 18 17 17 17 19 21 23 25 28 30 30 28 25 23 22 22 22
10 10 10 11 12 10 9 8 7 5 3 3 3 3 3 2 2 2 2 3 2 3 6 7 5 4 3 4 3 3 6 6 6 7 6 6 9 14 19 20 17 14 15 16 17 18 19 21 25 27 25 21 19 19 20 19 19 17 17 18 18 19 21 23 25 28 31 31 29 26 23 21 21 22
12 13 14 14 13 12 9 8 8 6 6 6 6 4 4 5 5 3 2 3 4 4 7 8 7 7 7 6 5 6 6 5 5 7 8 10 14 17 18 18 16 13 15 18 22 25 26 26 26 24 21 19 18 18 19 19 19 19 20 20 19 20 21 22 25 28 30 29 27 25 23 21 21 21
14 14 14 14 14 12 11 10 10 9 9 10 10 8 6 7 9 7 4 3 3 3 5 7 5 6 9 9 7 7 6 6 7 8 11 13 14 15 14 15 15 15 17 21 26 30 28 23 21 20 20 19 18 17 18 20 21 22 21 20 20 19 20 22 25 28 29 26 24 24 23 21 21 22
15 14 13 13 13 12 12 12 12 12 12 12 13 13 11 9 11 10 7 5 3 1 3 4 4 4 6 7 6 6 6 8 10 12 14 12 11 12 13 14 17 20 23 25 27 28 24 21 21 20 18 17 17 18 18 19 21 22 21 18 18 19 20 23 26 28 26 23 22 23 23 22 23 23
15 14 12 11 12 12 13 14 16 16 14 13 14 16 15 13 13 13 11 9 7 3 1 3 4 3 3 6 5 5 7 10 11 12 12 11 10 12 14 16 21 23 22 23 25 25 23 22 20 19 18 17 18 18 18 18 20 22 22 21 22 23 23 24 26 26 24 21 20 22 22 21 21 22
9 12 15 15 13 13 16 18 18 16 15 14 15 16 17 17 15 14 13 12 11 8 5 1 1 1 1 2 2 5 8 9 9 8 10 11 13 15 17 19 22 21 19 21 24 23 21 20 19 19 19 18 18 19 19 19 20 21 22 24 26 26 24 24 26 25 23 21 20 21 20 19 20 21
7 11 16 18 16 16 20 21 19 17 16 14 14 15 17 17 15 14 14 13 12 10 7 5 4 3 3 3 5 8 10 11 10 10 12 14 15 17 18 19 20 18 17 18 19 18 18 19 20 21 20 19 19 20 20 21 21 21 21 22 23 23 23 26 27 25 23 22 21 22 20 18 19 21
10 12 16 18 19 20 22 20 17 17 16 14 13 13 14 13 13 14 14 12 11 10 7 7 6 5 6 7 9 11 12 12 12 13 13 13 13 14 16 17 17 17 16 17 18 19 20 20 20 21 20 19 21 21 21 21 20 19 19 20 21 22 24 25 25 23 23 22 22 23 21 19 19 21
14 15 17 18 19 20 21 18 15 15 15 14 12 11 13 14 13 13 13 12 11 10 8 7 7 7 9 10 11 11 12 12 11 11 11 10 10 12 14 14 15 16 17 17 18 18 18 18 19 22 21 21 21 20 20 20 20 20 21 21 22 23 24 24 23 23 22 21 21 22 21 20 20 21
15 16 17 18 20 21 20 17 16 15 15 13 11 12 16 15 11 11 14 14 12 10 9 7 7 8 9 10 11 11 11 11 10 9 8 8 9 10 12 13 14 16 16 15 16 17 18 19 20 22 23 21 18 17 18 21 22 23 24 24 24 24 23 23 23 23 22 22 21 21 21 20 19 20
15 15 17 18 18 19 18 17 17 17 16 13 12 15 18 15 12 12 13 13 12 9 6 5 6 8 9 10 11 11 11 10 9 8 7 8 8 9 12 14 13 12 10 12 16 18 18 18 19 21 20 15 13 16 19 20 22 24 25 26 25 23 23 23 23 23 23 23 23 22 21 19 18 23
15 15 15 14 14 17 19 18 17 18 17 15 14 17 17 14 14 13 11 10 9 6 3 3 6 8 9 11 11 11 11 11 11 10 9 8 8 10 12 13 13 11 11 15 20 21 19 19 20 20 18 13 13 18 20 21 24 25 25 25 25 24 23 24 24 23 23 23 22 22 22 21 22 25
15 15 15 15 15 17 17 17 17 19 18 15 14 17 15 11 12 13 12 11 9 4 2 3 5 6 7 10 11 11 11 10 8 8 7 6 8 9 12 14 15 15 17 20 23 22 20 19 19 20 19 17 17 20 21 23 25 24 23 24 25 25 25 26 26 24 23 23 23 22 22 23 24 24
16 16 19 20 17 15 16 17 19 19 16 13 14 15 14 13 14 12 8 7 5 2 2 3 4 5 7 8 9 8 7 3 1 1 3 6 10 13 15 15 15 17 19 21 21 20 19 19 18 19 18 17 18 20 21 21 22 23 23 24 24 25 26 26 26 25 24 24 24 23 23 23 23 23
20 20 22 21 19 17 19 20 20 18 14 13 13 13 12 11 10 8 5 4 4 2 1 3 5 7 8 8 7 6 5 3 2 4 9 13 15 16 16 15 15 16 19 20 20 19 19 19 19 18 18 17 17 17 17 18 21 23 25 25 24 25 25 24 25 25 25 23 23 24 24 23 22 22
23 22 22 23 21 21 22 21 19 16 13 11 10 8 7 5 4 4 5 4 3 2 2 4 6 7 6 5 5 6 6 7 9 12 14 14 12 11 12 13 14 16 18 19 19 18 18 19 20 20 20 19 18 16 16 18 21 23 23 24 25 24 24 24 25 25 24 22 23 24 23 23 23 24
23 22 22 23 22 21 21 19 17 14 12 9 8 5 5 4 3 3 4 2 2 2 2 4 5 4 3 3 5 6 8 10 11 12 12 11 10 11 13 14 15 16 17 17 18 17 17 18 19 19 19 18 17 17 17 19 21 22 22 22 24 24 25 24 24 24 23 23 23 22 22 22 23 23
22 20 21 23 20 18 18 16 14 13 10 8 6 5 5 5 5 4 3 3 2 1 2 2 2 3 3 5 7 8 9 10 10 10 12 12 12 13 14 15 16 16 17 16 16 16 16 17 17 18 18 18 18 18 19 20 21 22 22 21 22 23 24 24 23 22 22 21 22 23 23 22 21 20
21 22 23 22 19 17 16 13 12 11 8 7 7 6 6 6 5 5 6 4 2 2 1 1 2 3 4 6 8 8 9 9 8 9 10 12 12 14 15 16 17 17 17 17 16 15 15 16 17 18 19 19 19 19 20 20 20 22 22 22 22 22 23 24 22 21 21 21 23 24 23 20 19 20
24 25 23 21 18 17 14 12 10 9 8 8 7 7 7 6 5 5 4 2 2 3 3 1 2 4 5 7 7 7 8 8 8 9 11 12 13 14 15 15 16 17 17 16 15 14 15 16 18 19 19 20 20 20 20 21 21 21 22 23 23 22 23 22 21 21 22 22 22 22 21 20 20 21
27 25 22 20 18 16 13 12 10 9 9 9 7 7 8 7 5 4 4 2 3 5 4 1 2 4 5 6 7 7 8 9 10 11 12 12 13 13 14 14 15 15 16 17 18 18 18 18 19 19 19 20 20 20 20 21 22 22 21 22 22 22 22 21 20 21 22 20 20 21 21 21 22 21
27 25 22 19 17 15 13 12 11 10 10 9 8 8 8 6 5 6 6 4 3 4 2 1 2 3 5 6 6 6 7 9 10 11 11 12 12 13 13 14 14 15 16 17 19 20 20 19 19 19 19 19 20 20 19 19 22 23 22 21 21 21 20 20 19 19 20 19 20 21 22 23 22 21
25 24 21 19 17 14 13 12 12 12 12 11 9 9 7 5 4 4 5 4 2 2 1 1 2 3 5 6 6 6 7 9 10 10 10 11 11 12 13 13 14 15 16 17 18 19 19 19 20 20 19 19 19 19 18 16 17 20 21 20 19 18 18 19 19 20 21 22 21 21 21 22 22 22
23 22 20 19 17 15 14 12 12 13 13 12 11 9 8 7 6 4 5 5 3 2 2 2 2 3 4 4 5 6 8 8 9 9 10 11 12 12 12 12 13 15 16 16 17 19 19 20 20 18 17 14 11 11 14 13 12 13 16 18 18 19 20 21 22 23 23 22 20 18 18 19 22 23
23 22 20 19 18 16 14 13 13 13 12 11 11 10 8 9 10 8 5 4 3 2 2 2 3 3 3 5 6 6 7 8 9 9 10 11 11 10 10 12 13 15 16 17 19 20 19 20 19 17 15 11 6 6 11 15 15 16 17 19 22 24 24 23 24 23 21 19 17 17 17 19 22 23
23 21 19 18 17 16 14 13 13 13 10 9 9 8 6 8 10 8 5 3 3 3 2 3 3 3 4 5 5 5 6 7 7 8 10 10 10 10 11 13 15 17 17 19 21 21 19 18 18 17 14 9 5 5 10 17 23 25 22 19 21 23 21 20 20 19 18 18 18 19 20 21 23 23
22 21 19 18 17 16 15 14 14 12 10 9 9 8 6 6 7 7 5 4 3 0 2 2 2 3 5 5 4 5 6 7 7 8 8 9 9 11 13 14 16 17 18 20 21 21 19 18 17 16 15 13 13 14 16 20 25 26 21 16 15 17 16 15 16 16 17 19 20 22 23 21 18 17
20 20 19 17 16 16 15 15 13 11 10 9 9 9 8 6 6 6 6 4 1 1 1 1 2 4 5 5 6 6 6 6 7 7 7 8 11 13 13 14 16 17 17 18 20 20 20 19 18 18 20 20 20 21 20 20 21 21 18 15 14 14 12 11 12 14 15 17 19 22 23 20 16 14
18 18 18 16 16 16 16 15 13 10 10 9 9 8 8 7 6 6 5 3 2 2 1 1 3 5 6 7 8 8 7 6 6 7 9 11 13 14 14 15 16 16 16 17 19 20 21 21 21 21 21 21 20 18 15 12 13 16 18 17 16 13 10 9 10 11 13 15 18 20 18 15 14 13
14 16 18 17 17 18 17 14 13 12 10 9 9 8 6 6 5 4 4 4 3 2 1 2 4 6 7 8 9 9 9 9 9 10 12 13 13 14 14 15 16 17 17 17 19 21 22 23 22 21 20 19 17 13 10 9 12 16 18 18 15 10 8 9 11 11 13 16 17 16 13 11 10 9
11 15 19 17 17 20 17 14 15 14 10 9 9 7 6 6 5 3 4 5 5 3 3 4 5 6 7 7 8 7 7 8 9 10 11 11 11 13 14 15 17 18 18 18 19 21 22 23 22 21 19 17 14 11 11 13 15 17 18 16 12 8 7 10 11 12 13 14 13 11 8 8 7 7
13 17 19 16 16 19 17 14 15 14 9 7 8 6 5 5 5 3 3 5 5 4 4 3 4 7 7 7 7 6 6 7 8 9 10 11 13 14 15 16 16 17 17 17 19 21 22 22 21 19 17 15 14 13 14 16 16 17 17 14 9 6 7 9 9 11 12 12 12 13 11 10 8 8
13 17 18 15 16 18 16 15 17 15 10 7 6 5 4 5 5 4 5 5 4 5 4 3 5 6 6 6 7 7 6 6 8 8 9 11 13 14 15 15 15 15 16 17 18 20 22 22 20 18 16 15 15 15 15 17 19 19 15 8 5 5 6 7 8 9 10 11 13 14 14 15 15 14
Wind_Direction
104 105 111 104 90 94 100 91 88 98 106 102 100 123 121 99 119 140 109 111 117 110 112 116 116 110 97 92 93 85 63 65 72 54 354 9 19 32 37 30 25 24 21 18 16 14 12 9 7 5 2 360 357 354 349 344 340 336 330 326 321 317 315 313 311 310 308 307 307 306 306 305 306 304
100 100 102 101 99 100 95 91 90 87 94 88 58 65 73 57 68 132 121 91 93 90 89 101 117 118 100 96 95 76 55 67 88 100 356 6 15 21 27 22 14 14 14 13 13 12 9 6 4 2 360 357 355 352 349 345 342 339 334 331 326 320 317 313 310 308 305 303 301 301 301 300 301 302
101 103 104 104 104 102 96 93 91 87 91 85 62 63 64 55 75 115 114 87 81 94 92 91 103 111 109 109 105 74 48 32 41 73 1 355 4 7 13 12 4 2 2 2 5 6 4 2 360 357 355 353 350 348 346 343 340 338 335 331 329 326 323 320 317 314 309 306 303 299 297 296 296 298
110 109 108 109 107 102 97 93 87 79 79 82 75 70 65 61 78 103 104 91 78 93 105 106 106 116 124 112 99 93 49 11 12 12 269 326 347 349 6 2 349 341 345 347 348 351 353 354 353 351 350 348 346 342 340 339 336 334 333 331 330 328 326 324 322 321 318 314 310 305 301 297 294 293
114 110 105 101 102 105 102 98 99 93 89 96 87 77 73 66 73 97 110 114 108 105 117 116 111 116 109 130 128 94 16 1 6 340 278 312 336 336 349 349 338 329 335 334 331 335 339 344 345 346 348 349 347 343 338 334 330 327 327 327 328 328 327 327 326 324 323 320 317 314 310 305 300 296
113 110 107 102 104 108 98 98 111 106 95 107 97 84 78 65 54 75 111 127 129 128 138 140 138 106 44 53 177 302 337 357 10 4 314 317 332 327 326 336 336 331 329 325 323 325 329 337 342 344 350 353 351 348 344 338 329 325 325 327 326 324 324 326 329 329 328 326 324 321 317 314 309 304
111 108 104 102 105 100 80 85 98 81 71 88 92 85 78 70 56 52 85 125 142 146 153 163 154 132 44 54 122 290 317 1 357 349 324 328 349 354 350 344 334 328 329 326 321 317 322 333 340 344 348 350 348 345 344 342 336 331 332 333 328 320 319 325 331 332 332 330 327 325 322 320 317 312
114 112 107 105 105 95 83 84 88 84 80 85 93 103 103 99 106 73 69 103 146 152 153 157 141 126 176 170 148 232 202 34 358 328 321 6 9 360 357 349 337 332 332 328 320 313 321 334 339 340 343 343 341 338 336 337 335 330 332 334 332 326 326 332 335 334 332 329 327 325 323 321 320 318
128 125 119 121 117 106 102 95 93 99 76 80 98 124 130 127 123 114 87 69 63 106 128 143 135 74 314 266 355 310 225 32 12 353 5 28 12 349 345 343 337 332 327 325 320 314 320 333 338 338 338 337 334 331 327 326 326 325 327 330 333 332 332 336 338 337 334 329 325 323 321 320 320 319
137 135 133 135 130 124 124 110 112 125 77 88 81 68 107 132 135 137 141 114 69 26 36 110 157 167 239 322 341 325 299 358 42 37 20 13 358 346 343 337 330 325 321 321 322 320 324 333 335 333 332 331 328 325 320 316 316 318 321 325 328 329 329 333 337 338 336 331 324 318 316 316 317 317
149 146 143 142 138 136 140 137 139 146 149 156 120 52 85 136 150 145 164 195 122 114 334 321 173 171 179 218 250 306 348 5 27 16 357 350 344 339 337 333 328 323 321 321 323 325 328 329 328 325 323 323 322 320 316 314 314 313 312 316 321 325 327 330 333 334 334 332 327 319 313 311 312 313
168 159 148 147 155 164 171 177 169 158 160 198 218 350 65 109 130 138 225 295 95 96 278 275 256 210 197 197 211 339 5 360 355 352 344 341 340 333 331 331 328 323 323 325 324 323 323 322 319 316 316 320 322 321 319 319 317 311 304 307 315 319 321 325 327 329 331 332 331 325 316 309 309 310
181 175 172 170 173 177 180 186 185 174 174 191 200 227 241 214 169 178 279 299 312 313 301 305 313 291 221 161 139 28 24 25 13 4 358 350 338 330 328 328 326 322 324 325 320 316 317 316 313 313 316 320 322 319 319 319 316 311 306 307 311 315 317 320 323 326 328 330 332 330 322 311 308 309
186 182 186 187 184 179 176 186 197 203 206 208 215 237 233 207 198 192 216 282 298 298 306 327 350 357 7 35 51 47 46 37 21 12 2 347 335 329 326 322 319 317 320 323 317 312 312 314 314 315 316 316 318 319 320 322 320 318 315 312 311 313 314 317 320 324 327 329 333 334 329 319 312 310
191 189 192 194 193 192 192 201 214 218 215 213 221 239 236 201 199 201 203 244 280 295 308 316 328 355 12 22 29 39 39 15 359 354 347 340 334 330 325 319 315 311 314 318 313 309 314 319 316 313 312 313 317 319 320 322 322 320 317 313 312 313 314 317 321 323 324 328 333 337 337 333 327 322
194 189 191 191 196 206 209 214 223 226 224 219 217 227 236 222 212 217 217 214 205 133 14 356 352 10 37 41 17 358 356 347 337 333 333 334 331 326 322 315 307 305 310 313 308 307 316 320 310 304 308 312 314 314 315 318 320 321 321 319 317 316 316 317 320 321 322 324 329 334 338 338 336 332
193 184 191 196 197 207 217 226 233 232 229 226 220 224 237 242 234 231 233 234 230 224 356 25 23 12 47 62 37 345 336 338 333 329 325 321 314 310 308 302 300 305 313 311 301 296 304 309 302 299 306 312 312 315 318 319 319 320 322 321 317 314 313 315 318 319 319 319 322 327 333 338 341 339
207 200 209 215 212 216 226 231 233 231 226 223 221 224 235 244 247 244 242 242 244 247 256 275 43 332 244 85 21 314 317 323 324 319 311 307 304 302 300 299 301 309 316 308 292 284 292 305 306 306 311 314 314 317 318 318 317 315 314 312 309 307 310 315 318 318 315 313 316 320 326 336 341 339
245 214 204 210 216 224 229 228 224 225 224 217 214 222 231 238 245 245 241 241 242 242 238 224 212 227 252 269 286 297 307 309 305 300 297 299 303 304 304 304 304 309 313 309 298 291 301 313 314 313 315 317 317 318 318 317 317 316 316 316 315 314 317 320 320 319 316 313 314 317 321 331 336 335
230 206 193 202 211 217 222 219 215 220 224 217 215 219 219 220 228 232 229 226 224 222 216 215 224 244 264 278 287 295 301 302 300 300 302 308 314 315 311 307 307 310 314 315 314 313 315 319 318 317 320 321 320 320 320 324 329 330 330 332 332 332 332 329 328 327 322 317 316 316 317 324 330 333
218 203 195 199 202 206 210 206 203 212 217 214 213 203 189 193 208 215 212 211 212 214 218 229 247 261 271 281 292 301 306 307 307 311 318 325 325 317 309 306 309 316 319 321 324 325 325 326 326 323 321 319 318 319 323 329 334 336 335 336 336 336 337 335 333 332 331 328 325 321 319 320 324 331
217 206 198 196 195 198 201 195 190 198 203 201 198 183 174 181 197 205 207 209 211 217 230 248 265 275 285 295 304 312 315 314 317 322 329 334 327 310 299 301 307 313 318 324 329 333 333 331 331 328 322 317 316 319 322 324 327 329 331 331 331 331 333 333 333 334 337 337 335 330 326 323 324 331
213 206 198 196 195 195 195 189 187 194 196 189 185 181 177 182 199 211 213 213 215 221 235 261 281 294 305 310 315 320 319 316 316 312 310 325 324 296 282 289 299 304 309 324 337 344 342 335 334 333 328 321 318 321 324 325 325 326 327 329 331 331 331 331 331 333 336 336 336 335 335 335 333 333
200 202 197 194 195 193 190 188 191 195 194 186 182 185 184 187 199 204 197 189 190 194 205 259 291 304 309 308 311 314 309 297 291 286 287 300 301 290 294 307 318 317 309 319 335 345 345 337 335 334 330 323 318 323 326 325 323 323 326 329 331 330 330 331 331 332 333 333 333 334 335 336 335 333
190 199 194 184 184 186 187 191 193 189 188 188 184 182 178 166 166 174 176 174 177 190 247 291 303 305 300 295 293 293 289 281 278 280 287 292 288 300 323 334 333 324 311 312 326 336 336 333 333 332 330 325 321 324 326 323 320 322 325 327 327 328 329 330 330 331 332 331 331 331 330 329 331 331
184 194 193 183 181 185 186 186 183 178 180 182 172 166 159 146 142 149 160 173 180 210 300 313 310 304 301 297 293 294 301 315 7 244 275 286 291 302 316 321 322 320 315 315 322 326 325 324 325 325 325 322 319 319 319 317 317 319 321 322 323 323 324 326 328 328 328 328 328 327 324 323 325 326
181 189 190 181 178 182 179 175 172 170 172 170 161 159 158 156 152 147 147 171 194 211 247 294 300 296 296 299 304 312 315 314 307 297 295 298 303 309 313 314 315 314 312 313 315 314 312 311 310 310 310 308 308 309 308 307 310 314 316 317 318 319 320 322 323 322 322 323 322 321 320 319 320 321
182 185 183 174 171 173 171 170 170 170 170 168 166 167 171 179 192 172 161 187 213 196 228 274 281 279 283 304 324 323 306 292 299 307 304 299 304 315 318 315 310 306 306 310 312 310 306 302 300 300 298 294 292 294 297 301 305 308 311 314 315 316 317 318 317 317 317 319 320 320 320 319 320 322
178 176 172 167 166 169 170 171 173 172 175 178 179 186 193 193 187 162 162 199 221 198 252 272 273 284 317 333 322 312 306 303 308 315 315 313 318 324 323 319 314 309 308 309 310 310 307 302 301 303 301 295 292 294 298 301 303 305 308 310 311 312 313 314 314 314 315 319 323 324 323 321 321 322
163 163 166 163 161 163 167 170 173 173 175 181 182 184 181 163 148 153 164 163 162 185 294 316 332 347 339 317 306 309 314 315 318 323 327 329 329 327 325 323 318 314 312 310 309 310 309 307 308 308 306 304 301 298 299 300 300 301 303 305 306 307 308 310 311 312 316 323 326 324 323 322 322 321
154 157 160 158 156 159 161 162 166 167 166 168 166 159 150 143 149 174 185 180 170 189 268 346 353 337 321 313 311 311 311 315 322 329 336 340 338 332 328 324 318 315 312 310 309 309 309 310 312 312 310 306 302 299 299 297 295 297 299 300 301 300 302 305 309 315 321 323 322 321 321 322 321 319
151 155 155 154 154 157 157 155 156 158 157 156 151 142 143 154 174 187 189 205 209 186 184 213 325 316 313 313 312 310 315 328 341 345 344 342 335 327 323 319 315 314 315 315 317 318 317 315 313 311 310 306 302 301 300 295 290 290 292 294 296 296 298 304 311 315 319 320 318 318 319 319 318 317
150 151 151 152 152 152 153 154 154 156 156 154 153 155 158 170 198 200 181 169 163 165 169 191 325 313 306 306 308 313 323 334 343 344 339 333 328 324 320 317 315 318 323 326 327 324 320 316 313 309 306 303 301 300 298 294 291 291 290 291 292 293 297 304 311 314 318 319 318 316 315 316 317 319
151 150 152 153 153 154 157 160 164 168 166 162 168 179 176 170 170 166 158 154 149 147 146 320 306 293 294 295 300 313 329 335 336 333 329 326 326 326 324 322 321 323 325 322 319 316 314 314 315 313 309 306 303 300 296 292 291 293 293 292 293 296 301 307 312 316 317 317 316 314 313 314 316 319
149 151 154 155 157 161 164 170 177 177 173 170 173 182 188 185 173 164 167 171 155 116 115 274 275 280 288 293 307 331 341 337 333 330 329 329 330 327 324 322 319 318 317 314 313 315 318 319 319 317 313 311 308 305 303 300 294 296 300 300 299 301 306 309 313 315 314 314 314 312 311 311 314 319
154 156 158 159 163 168 171 179 186 180 174 175 180 184 191 193 191 191 193 196 209 226 222 243 280 288 291 310 341 349 342 338 338 338 334 330 326 321 317 316 315 317 319 318 318 320 321 320 319 317 314 313 310 306 308 309 302 303 311 312 307 306 307 307 310 311 312 313 312 308 307 309 313 318
159 160 163 166 169 172 177 185 186 177 171 177 182 186 194 191 182 177 179 191 201 196 210 268 285 285 318 342 346 340 335 337 338 333 326 322 321 321 323 325 324 323 322 319 318 319 318 316 315 313 310 311 308 298 307 310 308 307 310 307 302 303 304 302 303 306 309 311 310 307 307 308 308 311
162 162 167 170 171 177 186 186 174 165 168 178 178 178 185 179 168 159 151 149 158 171 230 273 266 280 320 326 324 326 327 325 324 323 323 324 329 334 335 330 324 320 318 316 315 317 316 313 310 309 311 313 309 302 312 313 311 313 317 313 304 306 309 304 299 301 307 311 312 313 311 305 302 304
166 165 170 175 177 181 183 171 159 160 171 176 175 180 185 168 149 144 144 143 144 208 297 272 260 299 316 319 331 341 336 331 332 331 329 333 341 343 337 328 321 319 317 315 315 317 317 313 309 310 312 310 305 305 307 305 306 315 331 339 325 318 319 312 301 300 308 316 320 322 320 317 315 316
170 173 177 179 179 177 167 154 154 164 168 167 172 180 181 168 144 138 142 143 127 12 343 284 296 323 336 345 348 341 331 330 336 340 348 357 355 346 335 326 322 319 315 313 313 315 315 313 313 313 312 309 309 309 305 300 302 314 333 344 334 326 325 318 309 309 317 324 328 328 326 327 330 334
174 179 178 179 178 168 151 144 153 164 164 167 171 164 154 153 153 152 155 154 119 95 111 286 334 352 0 3 0 356 352 353 1 9 9 359 344 331 323 321 319 317 313 310 310 312 315 317 319 319 317 315 315 313 305 297 301 312 322 330 330 326 326 332 332 331 333 336 335 331 328 325 327 331
180 179 178 182 177 160 147 148 158 162 163 167 164 154 150 158 168 188 214 210 164 112 67 13 8 4 360 360 360 0 5 12 14 7 356 342 329 323 323 322 318 314 311 309 310 314 320 324 326 325 323 320 318 309 292 286 296 302 311 325 331 327 329 344 352 351 348 345 341 335 327 322 325 333
196 186 181 180 164 150 149 153 154 154 155 147 142 150 173 179 176 199 217 190 157 107 53 39 19 357 351 356 360 1 7 5 357 352 348 341 333 329 326 322 318 315 315 316 318 321 325 328 330 329 325 322 320 306 289 290 295 294 301 316 330 338 343 351 359 0 355 353 357 358 347 331 324 324
214 190 175 163 143 141 148 150 146 148 149 141 144 166 183 164 153 154 157 148 127 84 59 39 1 351 359 8 4 1 3 1 359 2 0 349 338 332 329 325 323 323 325 325 325 326 329 331 333 333 329 323 320 311 299 296 296 294 299 312 329 348 355 356 2 4 4 9 22 31 30 26 21 7
197 166 152 140 130 135 144 146 145 147 144 139 149 160 145 131 129 124 125 126 107 82 68 20 357 10 24 12 353 354 10 19 19 12 354 338 335 336 335 332 329 330 332 331 329 329 331 333 337 338 333 328 328 323 311 302 298 295 300 319 349 359 0 3 5 7 13 26 39 46 49 47 42 33
Height
833 834 835 835 835 836 836 837 837 837 838 839 840 841 841 842 844 847 850 852 853 855 856 857 859 860 860 861 861 861 861 861 861 860 860 860 860 860 859 859 858 858 857 857 856 856 855 855 854 854 853 853 853 852 852 851 850 850 849 849 849 848 848 848 847 847 846 846 845 845 845 844 844 844
834 834 835 836 836 837 838 838 838 838 839 840 840 841 841 841 842 844 848 852 853 854 856 857 858 859 860 860 861 861 861 861 861 861 861 860 860 860 859 859 859 858 858 857 857 856 856 855 854 854 854 853 853 852 851 851 850 849 849 848 848 848 847 847 846 846 845 845 844 844 843 843 842 842
834 835 836 837 838 839 839 839 840 841 841 841 842 842 842 842 843 843 846 851 854 855 855 857 858 859 860 860 860 861 861 861 861 861 860 860 860 860 859 859 859 858 858 858 857 857 856 856 855 854 854 853 852 852 851 850 849 848 848 847 847 846 846 845 845 844 843 843 842 842 842 841 840 840
835 836 837 838 839 840 840 841 842 842 842 843 843 844 844 844 845 846 847 851 854 855 856 857 858 859 859 860 860 860 860 861 861 860 860 860 859 859 859 859 858 858 857 857 857 857 857 856 855 855 854 853 852 851 850 850 849 848 847 846 846 845 844 843 843 842 842 841 840 840 840 839 839 838
835 836 837 838 839 840 841 842 842 843 843 844 844 845 845 846 847 847 848 851 854 856 856 857 858 859 859 860 860 860 860 860 860 859 859 859 858 858 858 858 858 857 857 857 856 856 856 856 855 854 854 853 852 851 850 849 848 847 846 845 844 843 843 842 841 840 840 839 839 838 838 837 837 836
835 836 837 838 839 840 841 841 842 843 844 844 844 845 846 847 848 848 849 851 853 855 856 857 858 859 859 859 859 859 859 859 859 859 859 859 858 858 857 857 857 857 856 856 855 855 855 854 854 853 852 852 851 850 850 849 848 847 846 845 844 843 842 841 840 839 838 838 837 836 836 835 835 835
836 836 837 838 839 840 841 841 842 843 844 844 845 846 847 848 849 849 851 852 853 854 855 856 857 858 858 858 858 858 858 858 859 859 859 858 859 859 858 857 857 856 856 855 855 854 854 853 853 852 851 850 849 849 848 847 847 846 846 845 844 842 841 840 839 838 837 837 836 835 834 834 833 833
836 837 838 839 840 841 842 842 843 844 845 845 846 847 848 849 849 850 850 852 852 853 854 854 856 857 857 857 857 857 857 857 857 858 858 858 858 858 858 858 857 856 856 855 854 853 853 852 851 851 850 849 849 848 847 846 845 845 845 844 843 842 841 841 840 838 837 836 834 833 833 832 831 831
837 838 839 840 841 842 843 844 844 845 846 846 847 847 848 849 850 850 850 851 852 852 853 853 855 856 856 856 856 856 856 856 856 857 857 857 857 858 858 859 858 857 856 855 853 852 852 851 850 849 849 848 848 847 846 845 844 843 843 842 842 841 841 841 840 839 837 836 834 833 831 830 829 829
837 838 839 840 841 842 843 844 845 846 846 847 847 848 849 850 850 851 851 851 851 852 853 853 854 855 855 856 856 856 856 855 855 856 856 856 857 858 858 858 858 857 856 855 853 852 851 850 849 848 848 847 846 845 844 843 843 842 841 841 840 840 840 839 838 838 837 835 834 832 831 829 828 827
838 838 839 840 841 842 843 844 845 845 846 847 847 848 849 850 850 851 851 852 852 852 853 853 853 853 854 855 855 855 855 855 855 855 855 856 856 857 857 857 857 856 855 854 853 852 851 850 849 848 847 846 844 844 843 842 841 840 840 839 839 839 838 837 836 836 835 834 833 832 830 829 827 826
837 838 839 839 840 841 841 842 844 845 846 847 848 848 849 850 850 851 852 852 852 852 852 853 853 853 853 854 854 855 855 855 855 855 855 855 856 856 856 856 855 855 854 853 852 851 850 849 848 847 846 844 843 842 841 841 840 839 838 838 838 837 837 836 835 834 834 832 831 830 829 828 826 825
837 837 838 837 838 839 839 841 843 845 847 847 848 849 849 850 850 850 851 852 852 853 852 852 852 852 853 853 854 854 854 855 855 854 854 855 855 855 854 854 855 854 852 851 850 849 849 848 846 845 844 843 842 841 840 840 839 838 837 837 836 836 835 835 834 834 833 831 829 828 827 826 825 824
836 836 836 837 837 838 839 840 842 843 846 847 848 849 849 849 850 850 851 852 852 853 852 852 852 852 853 853 853 853 853 854 854 854 854 855 855 855 853 853 854 853 852 850 848 847 847 846 844 843 842 841 841 840 839 838 838 837 836 836 835 835 834 834 833 833 831 830 828 826 825 824 823 822
834 834 836 836 837 837 838 839 840 841 843 845 847 849 849 849 849 850 851 852 852 852 852 852 852 851 852 852 852 853 853 853 854 854 854 855 854 854 853 852 852 852 851 850 847 845 844 844 843 841 841 840 840 840 839 837 837 836 835 835 834 834 833 833 832 831 830 829 827 825 824 822 821 820
833 833 835 836 836 837 837 839 840 840 841 843 844 847 848 849 849 850 851 851 852 852 852 852 852 852 852 852 852 852 852 853 854 854 854 855 854 854 854 853 851 850 850 849 846 843 842 842 841 840 839 839 839 839 838 837 836 835 834 833 833 832 832 831 831 830 828 827 825 824 822 821 820 819
831 833 835 835 836 837 837 838 838 839 840 841 843 845 847 849 849 849 850 851 851 852 852 852 852 852 852 852 852 853 853 853 853 853 854 854 854 854 853 852 851 850 849 848 844 842 841 841 839 838 838 838 837 837 836 836 835 834 833 832 831 831 831 830 829 828 826 825 824 823 821 820 818 817
831 833 834 834 835 836 835 836 837 837 838 839 841 843 845 847 849 850 850 850 850 851 851 851 852 851 851 852 852 853 853 853 853 854 854 854 853 853 852 851 850 848 848 846 843 840 840 839 838 837 837 836 836 835 835 834 834 833 832 831 830 830 829 828 827 825 824 823 822 821 820 819 817 816
831 832 832 831 832 832 833 834 835 836 836 837 838 840 842 845 847 848 849 849 849 850 850 850 851 851 851 852 852 853 853 853 853 853 853 853 852 851 850 849 848 847 847 846 843 840 838 839 837 836 835 835 834 834 833 833 832 831 830 830 829 828 827 826 824 823 822 822 821 819 818 817 816 814
829 829 830 829 829 830 831 833 834 834 835 836 837 838 840 843 844 845 847 848 848 849 849 850 850 851 851 852 852 852 853 852 852 852 852 852 851 850 849 848 848 847 846 845 843 840 838 838 837 834 834 833 832 832 832 831 831 830 829 828 827 826 826 824 823 822 821 820 819 817 817 815 814 813
826 827 827 826 827 828 829 831 833 833 834 836 837 838 840 842 843 844 846 847 847 848 848 849 850 850 851 852 852 852 852 851 851 851 851 851 851 850 849 848 847 847 846 845 843 840 838 837 836 834 832 832 831 831 830 830 829 828 828 827 826 825 824 823 822 821 819 818 817 816 815 814 812 811
824 824 825 824 825 826 827 828 830 832 834 836 836 838 839 841 842 843 845 846 846 847 848 848 849 850 851 851 851 851 851 850 850 850 850 850 850 850 850 849 847 846 846 844 842 840 838 837 836 834 831 830 830 830 829 829 828 827 826 825 824 824 823 822 820 819 818 816 815 814 813 812 811 810
822 822 823 823 823 824 826 827 828 830 833 835 836 837 838 840 841 842 844 845 845 846 847 848 849 849 850 850 850 850 850 849 849 849 849 850 849 849 849 848 847 846 845 843 841 840 839 837 836 835 833 830 829 829 829 828 827 826 825 824 823 823 821 820 819 818 816 815 814 813 812 811 810 808
819 820 820 821 823 824 825 826 828 830 832 834 835 837 838 839 840 841 843 844 845 846 847 847 848 848 848 848 849 849 849 849 849 849 849 849 849 849 849 848 846 845 844 842 841 841 840 838 837 836 835 832 829 828 828 827 826 826 825 824 822 821 820 819 817 816 815 814 813 812 811 810 809 807
817 818 819 820 822 823 824 825 827 829 831 833 834 835 837 838 840 841 843 844 845 846 846 847 847 847 848 848 848 848 848 848 848 848 849 849 849 849 848 846 845 844 843 842 842 841 840 838 837 836 835 834 831 828 827 826 826 825 825 823 822 820 819 818 816 815 814 813 812 811 810 809 808 806
814 816 818 819 821 822 823 825 826 828 831 832 833 834 836 838 840 841 843 844 845 845 846 846 846 847 847 848 848 849 849 848 848 848 849 849 848 847 847 846 845 844 842 842 842 841 840 839 838 836 835 834 832 830 828 826 825 824 824 823 821 820 818 817 815 814 813 812 811 810 809 808 807 806
812 814 817 818 819 821 823 825 826 828 830 831 833 834 836 838 840 841 843 844 844 845 845 845 846 846 847 847 848 848 848 847 847 847 847 847 846 845 845 845 844 843 842 841 841 841 840 838 838 837 835 833 831 830 828 826 824 823 822 821 820 819 818 817 815 814 813 811 810 809 808 806 805 804
809 812 816 817 818 820 822 825 826 828 830 831 833 834 836 838 839 841 842 843 843 843 844 845 845 846 847 847 848 848 847 847 847 847 846 846 845 844 843 843 843 843 842 841 840 840 839 837 836 835 834 833 831 829 827 826 824 822 821 820 819 818 817 816 815 813 812 811 809 808 806 805 804 803
808 812 815 817 818 820 823 825 826 828 830 831 833 835 836 838 839 840 841 842 842 843 844 844 845 846 846 847 847 847 846 846 846 846 845 845 844 843 843 842 842 842 841 840 839 839 838 836 835 834 833 832 830 829 827 825 823 822 821 820 818 817 816 816 814 812 811 810 808 807 806 804 803 802
808 811 814 816 819 822 823 825 827 828 830 832 834 835 837 838 839 840 840 841 841 842 843 844 844 845 846 846 846 846 846 846 846 845 844 843 842 842 842 841 841 841 840 839 838 837 836 835 834 833 832 830 829 828 827 825 823 821 821 820 818 816 815 814 813 812 810 809 807 806 805 803 802 801
807 810 814 817 819 822 824 826 827 829 831 833 834 836 837 838 838 838 839 840 840 841 843 843 844 844 845 845 845 846 846 845 845 844 843 842 842 842 841 841 840 839 839 838 837 836 835 834 833 832 830 829 827 826 825 824 822 820 819 819 818 816 814 813 812 811 809 808 806 805 804 802 801 800
807 811 814 817 820 822 824 826 828 830 832 833 834 836 837 837 838 838 839 840 841 842 842 843 843 844 844 845 845 845 845 844 843 842 842 842 842 842 841 841 839 838 837 836 835 835 834 833 831 830 829 828 826 825 823 822 821 819 818 817 816 815 813 812 811 809 808 806 805 803 802 801 800 798
807 811 814 817 820 822 824 826 828 830 832 833 835 836 836 837 838 838 839 840 841 841 841 842 843 843 844 844 844 844 843 843 842 842 842 842 842 841 841 840 839 838 836 835 834 833 832 831 830 829 828 826 825 824 822 820 818 817 816 815 814 813 812 811 810 808 807 805 803 802 801 799 798 797
806 810 814 817 820 822 824 826 828 830 831 833 834 835 836 837 837 838 839 840 840 840 841 842 842 843 843 843 843 843 842 842 842 842 842 842 841 841 840 839 838 837 836 835 833 832 830 829 828 827 826 824 823 822 821 819 816 815 815 814 813 811 810 809 808 807 805 804 802 800 798 797 796 795
807 810 814 817 819 822 824 826 828 829 831 832 834 835 836 837 837 838 839 839 840 840 841 841 842 842 842 842 842 841 841 841 841 841 841 841 840 840 839 839 837 836 835 833 832 831 829 828 827 825 823 822 820 818 818 818 816 814 813 812 811 810 809 808 807 806 804 803 802 800 797 795 794 793
808 810 813 816 819 821 824 825 827 829 830 832 833 834 835 836 837 838 839 839 840 841 841 841 841 841 841 841 840 840 840 840 840 840 840 840 839 839 838 837 836 835 834 832 831 830 829 827 826 824 822 821 819 816 815 816 816 814 813 811 810 808 807 806 805 804 802 801 800 798 796 794 792 791
807 810 813 816 818 820 822 824 826 827 829 831 832 833 834 836 837 838 839 839 840 840 840 841 841 840 840 839 839 839 840 839 839 839 839 839 838 837 837 836 835 834 832 831 830 829 828 827 825 824 822 820 818 816 813 813 813 813 812 810 808 806 805 804 803 801 800 799 798 797 796 793 791 790
806 809 812 815 817 819 821 823 824 826 828 830 832 833 834 835 836 837 838 838 839 839 840 840 840 839 839 838 838 838 838 838 838 838 838 837 837 836 835 835 834 832 831 830 829 828 827 826 824 823 822 820 818 816 813 811 809 809 809 809 806 804 803 802 801 800 799 798 797 796 794 792 789 788
804 808 811 813 815 818 819 821 823 825 827 829 831 833 834 835 835 836 837 838 838 839 839 839 839 839 838 837 837 837 837 837 837 837 837 836 836 835 835 834 833 831 830 828 827 826 825 825 823 822 821 820 818 817 815 812 808 806 806 806 805 803 802 801 800 799 798 797 795 793 791 789 787 786
804 807 809 812 814 816 818 820 822 825 827 829 831 832 834 834 835 836 837 837 838 839 839 839 839 838 837 836 836 836 836 836 836 836 835 835 835 834 834 833 832 830 829 828 826 825 824 823 822 821 820 818 817 815 814 812 809 806 805 805 804 803 802 801 800 799 797 796 794 792 789 787 786 785
804 806 808 811 814 815 816 819 822 825 827 829 831 832 833 834 835 835 836 837 838 838 838 838 838 837 836 835 835 835 835 835 835 834 834 834 834 834 833 832 830 829 828 827 825 824 822 821 820 819 817 816 814 813 812 810 808 806 804 804 803 802 801 800 799 798 797 795 793 791 789 787 785 784
805 807 808 811 813 814 816 818 821 824 827 829 830 831 833 834 834 835 836 837 838 838 838 838 837 836 835 834 834 834 834 834 834 834 834 834 833 833 832 830 829 828 827 826 824 822 821 819 817 816 815 813 812 811 810 809 807 805 804 803 803 802 801 800 799 798 796 795 793 791 789 788 786 785
806 807 809 811 812 813 816 818 821 824 827 828 829 832 833 833 834 835 836 836 837 837 837 837 836 835 834 834 834 834 834 834 834 834 833 833 833 832 830 829 828 827 826 824 823 821 819 817 815 814 813 811 811 810 809 807 806 804 803 803 802 801 800 799 798 797 796 795 794 792 790 789 788 786
807 808 809 810 812 813 816 818 821 824 826 828 830 832 832 833 834 835 836 836 836 836 836 836 835 834 834 834 834 834 834 833 833 833 833 833 832 831 830 828 827 826 825 823 821 819 817 815 814 813 811 810 809 808 807 806 804 803 802 802 802 801 800 799 798 797 797 796 794 792 791 790 789 788
807 807 808 810 812 814 816 819 821 823 826 828 829 831 832 833 834 835 835 835 835 835 835 835 834 834 834 834 833 833 833 833 833 833 833 832 831 830 828 827 826 825 823 822 820 817 815 814 812 811 810 809 808 807 806 804 803 802 802 802 802 801 800 799 799 798 797 796 795 793 792 791 790 789